sat.trackr.live / text

‹ back to catalog

STARLINK-5980

NORAD 56326 · 2023-058K

PAYLOAD ACTIVE UNKNOWN

§ Identity

Operator
Country
US
Launch date
2023-04-27
Launch site
AFWTR
Launch vehicle
Mass (kg)
RCS (m²)

Purposes: comms

External: N2YO · Heavens-Above · Gunter

§ Orbital elements

Epoch: 2026-05-25T00:13:28.284096Z

Period
95.64 min
Inclination
97.4483°
Eccentricity
0.0003326
Mean motion
15.05655843 rev/d
Perigee alt
547.2 km
Apogee alt
551.8 km
Semi-major
6,927.6 km
B*
-1.1276e-4
RAAN
144.9051°
Arg perigee
94.8387°
Mean anomaly
265.3220°
Rev number
16,925

§ Raw data

STARLINK-59801 56326U 23058K   26145.00935514 -.00001686  00000+0 -11276-3 0  99972 56326  97.4483 144.9051 0003326  94.8387 265.3220 15.05655843169251

JSON: /api/v1/satellites/56326 · /tle

For live sub-satellite position, see the globe view (requires WebGL).

§ Visibility from observer

Set your observer location to see the next 7 days of passes ≥ 10°. The values pass through the URL so the page stays shareable.

No JS? Fill the form by hand. The geolocation button needs JavaScript.